Quillayute, WA
on Monday, February 11, 2013

Monday
Previous Day Next Day
Daily Summary
 ActualAverageRecord
Temperature
Mean Temperature °F 42°F  
Max Temperature 50°F 49°F 63°F (1970)
Min Temperature 42°F 35°F 22°F (1978)
Degree Days
Heating Degree Days 19 23  
Month to date heating degree days 236 253  
Since 1 July heating degree days 3344 3458  
Cooling Degree Days 0 0  
Month to date cooling degree days 0 0  
Year to date cooling degree days 0 0  
Moisture
Dew Point 42°F   
Average Humidity 85    
Maximum Humidity 89    
Minimum Humidity 80    
Precipitation
Precipitation 0.12 in 0.38 in 3.82 in (1976)
Month to date precipitation 2.14 4.26  
Year to date precipitation 12.48 18.87  
Wind
Wind Speed 2 mph   
Max Wind Speed 8 mph   
Max Gust Speed 10 mph   
Visibility 2 miles   
Events Fog , Rain   

Key: T is trace of precipitation, MM is missing value
Source: NWS Daily Summary
Time(PST)TemperatureDew PointHumidity Pressure Visibility Wind DirectionWind SpeedGust SpeedPrecipitationEvents Conditions
12:07 AM 42.8°F 39.2°F 87% 30.34 in 1.8 miles Calm Calm - N/A   Overcast
12:22 AM 42.8°F 39.2°F 87% 30.34 in 2.5 miles Calm Calm - N/A   Overcast
12:29 AM 42.8°F 39.2°F 87% 30.34 in 1.2 miles Calm Calm - N/A   Overcast
12:38 AM 42.8°F 39.2°F 87% 30.34 in 2.0 miles Calm Calm - N/A   Overcast
12:53 AM 43.0°F 39.0°F 86% 30.34 in 2.0 miles Calm Calm - N/A   Overcast
1:04 AM 42.8°F 39.2°F 87% 30.34 in 1.5 miles Calm Calm - N/A   Overcast
1:35 AM 42.8°F 39.2°F 87% 30.34 in 3.0 miles Calm Calm - 0.01 in   Overcast
1:48 AM 42.8°F 39.2°F 87% 30.34 in 1.8 miles Calm Calm - 0.01 in   Overcast
1:53 AM 43.0°F 39.0°F 86% 30.34 in 1.5 miles SE 5.8 mph - 0.01 in   Overcast
2:04 AM 42.8°F 39.2°F 87% 30.34 in 1.5 miles East 3.5 mph - N/A   Overcast
2:16 AM 42.8°F 39.2°F 87% 30.34 in 1.2 miles Calm Calm - N/A   Overcast
2:53 AM 43.0°F 39.9°F 89% 30.35 in 0.8 miles Calm Calm - N/A   Mist
3:01 AM 42.8°F 39.2°F 87% 30.34 in 1.2 miles Calm Calm - N/A   Overcast
3:08 AM 42.8°F 39.2°F 87% 30.34 in 1.8 miles Calm Calm - N/A   Overcast
3:17 AM 42.8°F 39.2°F 87% 30.34 in 1.0 miles Calm Calm - N/A   Mist
3:24 AM 42.8°F 39.2°F 87% 30.34 in 0.8 miles Calm Calm - N/A   Mist
3:53 AM 42.8°F 39.2°F 87% 30.33 in 0.8 miles Calm Calm - N/A   Mist
4:10 AM 42.8°F 39.2°F 87% 30.33 in 0.2 miles Calm Calm - 0.01 in Fog Fog
4:18 AM 42.8°F 39.2°F 87% 30.33 in 0.8 miles Calm Calm - 0.01 in   Mist
4:25 AM 42.8°F 39.2°F 87% 30.32 in 1.0 miles Calm Calm - 0.01 in   Mist
4:32 AM 42.8°F 39.2°F 87% 30.33 in 1.2 miles Calm Calm - 0.01 in   Overcast
4:40 AM 42.8°F 39.2°F 87% 30.33 in 2.0 miles Calm Calm - 0.01 in   Overcast
4:53 AM 43.0°F 39.9°F 89% 30.33 in 1.5 miles Calm Calm - 0.01 in   Overcast
5:00 AM 42.8°F 39.2°F 87% 30.32 in 1.0 miles Calm Calm - N/A   Overcast
5:31 AM 42.8°F 39.2°F 87% 30.32 in 0.8 miles Calm Calm - N/A   Mist
5:53 AM 43.0°F 39.9°F 89% 30.32 in 0.5 miles Calm Calm - 0.01 in Fog Fog
6:42 AM 42.8°F 39.2°F 87% 30.32 in 1.0 miles East 4.6 mph - 0.00 in   Mist
6:53 AM 43.0°F 39.9°F 89% 30.32 in 0.8 miles Calm Calm - 0.01 in   Mist
6:59 AM 42.8°F 39.2°F 87% 30.32 in 1.0 miles Calm Calm - N/A   Mist
7:08 AM 42.8°F 39.2°F 87% 30.31 in 0.8 miles Calm Calm - N/A   Mist
7:53 AM 43.0°F 39.9°F 89% 30.32 in 0.5 miles Calm Calm - 0.01 in Fog Fog
8:01 AM 42.8°F 39.2°F 87% 30.31 in 0.2 miles Calm Calm - N/A Fog Fog
8:09 AM 42.8°F 39.2°F 87% 30.31 in 0.5 miles Calm Calm - 0.00 in Fog , Rain Light Rain
8:34 AM 44.6°F 39.2°F 81% 30.32 in 0.5 miles Calm Calm - 0.02 in Fog , Rain Light Rain
8:53 AM 44.1°F 41.0°F 89% 30.33 in 0.5 miles Calm Calm - 0.02 in Fog Fog
9:49 AM 44.6°F 42.8°F 93% 30.33 in 0.5 miles Calm Calm - 0.02 in Fog , Rain Light Rain
9:53 AM 45.0°F 42.1°F 90% 30.33 in 0.5 miles Calm Calm - 0.02 in Fog , Rain Light Rain
10:53 AM 48.0°F 44.1°F 86% 30.33 in 0.8 miles SSW 3.5 mph - 0.01 in   Overcast
11:53 AM 48.0°F 44.1°F 86% 30.33 in 0.5 miles Variable 4.6 mph - 0.01 in Fog Fog
12:04 PM 48.2°F 44.6°F 87% 30.32 in 0.5 miles South 4.6 mph - N/A Fog Fog
12:18 PM 48.2°F 44.6°F 87% 30.32 in 1.0 miles South 4.6 mph - N/A   Overcast
12:28 PM 48.2°F 44.6°F 87% 30.32 in 1.8 miles SW 6.9 mph - N/A   Overcast
12:53 PM 48.9°F 45.0°F 86% 30.32 in 2.5 miles SW 5.8 mph - N/A   Overcast
1:01 PM 50.0°F 46.4°F 87% 30.32 in 4.0 miles SW 4.6 mph - N/A   Overcast
1:15 PM 48.2°F 44.6°F 87% 30.32 in 2.0 miles SSW 5.8 mph - N/A   Overcast
1:18 PM 48.2°F 44.6°F 87% 30.31 in 1.2 miles SW 5.8 mph - N/A   Haze
1:27 PM 48.2°F 44.6°F 87% 30.32 in 0.5 miles WSW 4.6 mph - N/A   Haze
1:40 PM 48.2°F 44.6°F 87% 30.32 in 1.0 miles SW 6.9 mph - N/A   Overcast
1:53 PM 48.9°F 45.0°F 86% 30.32 in 1.0 miles SW 5.8 mph - N/A   Overcast
2:44 PM 48.2°F 44.6°F 87% 30.32 in 0.5 miles WSW 3.5 mph - 0.00 in Fog , Rain Light Rain
2:53 PM 48.0°F 44.1°F 86% 30.32 in 1.8 miles WSW 3.5 mph - 0.01 in Rain Light Rain
2:58 PM 48.2°F 44.6°F 87% 30.32 in 3.0 miles WSW 5.8 mph - N/A   Haze
3:13 PM 48.2°F 44.6°F 87% 30.32 in 5.0 miles WSW 5.8 mph - N/A   Haze
3:32 PM 48.2°F 44.6°F 87% 30.32 in 5.0 miles West 5.8 mph - N/A   Haze
3:46 PM 48.2°F 44.6°F 87% 30.33 in 4.0 miles SW 3.5 mph - N/A   Haze
3:53 PM 48.9°F 44.1°F 83% 30.33 in 4.0 miles WSW 3.5 mph - N/A   Haze
4:41 PM 48.2°F 42.8°F 82% 30.33 in 1.8 miles West 4.6 mph - N/A   Haze
4:53 PM 48.0°F 43.0°F 83% 30.33 in 1.5 miles West 3.5 mph - N/A   Haze
4:59 PM 48.2°F 42.8°F 82% 30.33 in 1.2 miles WSW 3.5 mph - N/A   Haze
5:05 PM 48.2°F 44.6°F 87% 30.32 in 0.8 miles Calm Calm - N/A   Overcast
5:17 PM 46.4°F 42.8°F 87% 30.33 in 1.5 miles Calm Calm - N/A   Overcast
5:24 PM 46.4°F 42.8°F 87% 30.33 in 3.0 miles West 3.5 mph - N/A   Overcast
5:40 PM 46.4°F 42.8°F 87% 30.33 in 4.0 miles WSW 3.5 mph - N/A   Overcast
5:53 PM 46.9°F 43.0°F 86% 30.34 in 5.0 miles Calm Calm - N/A   Overcast
6:08 PM 46.4°F 42.8°F 87% 30.33 in 1.8 miles Calm Calm - N/A   Overcast
6:24 PM 46.4°F 42.8°F 87% 30.33 in 3.0 miles Calm Calm - 0.00 in   Overcast
6:36 PM 46.4°F 42.8°F 87% 30.33 in 1.8 miles Calm Calm - 0.00 in   Overcast
6:49 PM 46.4°F 42.8°F 87% 30.33 in 1.5 miles Calm Calm - 0.00 in   Overcast
6:53 PM 46.9°F 43.0°F 86% 30.34 in 1.2 miles Calm Calm - 0.00 in   Overcast
7:06 PM 46.4°F 42.8°F 87% 30.33 in 1.2 miles Calm Calm - N/A   Overcast
7:13 PM 46.4°F 42.8°F 87% 30.33 in 1.5 miles Calm Calm - 0.00 in Rain Light Rain
7:24 PM 46.4°F 42.8°F 87% 30.33 in 1.2 miles Calm Calm - 0.00 in Rain Light Rain
7:30 PM 46.4°F 42.8°F 87% 30.33 in 2.0 miles SW 3.5 mph - 0.00 in Rain Light Rain
7:43 PM 46.4°F 42.8°F 87% 30.32 in 2.5 miles Calm Calm - 0.00 in   Overcast
7:53 PM 46.9°F 43.0°F 86% 30.33 in 4.0 miles Calm Calm - 0.00 in   Overcast
8:14 PM 46.4°F 42.8°F 87% 30.33 in 1.8 miles Calm Calm - N/A   Overcast
8:24 PM 46.4°F 42.8°F 87% 30.33 in 1.2 miles Calm Calm - N/A   Overcast
8:31 PM 46.4°F 42.8°F 87% 30.33 in 1.8 miles Calm Calm - N/A   Overcast
8:38 PM 46.4°F 42.8°F 87% 30.33 in 2.0 miles Calm Calm - N/A   Overcast
8:46 PM 46.4°F 42.8°F 87% 30.33 in 1.8 miles Calm Calm - N/A   Overcast
8:50 PM 46.4°F 42.8°F 87% 30.33 in 0.8 miles Calm Calm - N/A   Overcast
8:53 PM 46.0°F 43.0°F 89% 30.34 in 0.5 miles Calm Calm - N/A Fog Fog
9:02 PM 46.4°F 42.8°F 87% 30.33 in 0.2 miles Calm Calm - N/A Fog Fog
9:11 PM 46.4°F 42.8°F 87% 30.34 in 0.2 miles Calm Calm - N/A Fog Fog
9:27 PM 46.4°F 42.8°F 87% 30.34 in 0.8 miles Calm Calm - N/A   Mist
9:34 PM 46.4°F 42.8°F 87% 30.34 in 1.0 miles Calm Calm - N/A   Mist
9:53 PM 46.0°F 43.0°F 89% 30.35 in 1.5 miles Calm Calm - N/A   Overcast
10:10 PM 46.4°F 42.8°F 87% 30.35 in 2.5 miles Calm Calm - N/A   Overcast
10:24 PM 44.6°F 42.8°F 93% 30.34 in 1.2 miles Calm Calm - N/A   Overcast
10:30 PM 44.6°F 42.8°F 93% 30.34 in 0.2 miles Calm Calm - N/A Fog Fog
10:44 PM 44.6°F 41.0°F 87% 30.35 in 0.2 miles Calm Calm - N/A Fog Fog
10:53 PM 44.1°F 41.0°F 89% 30.35 in 0.2 miles Calm Calm - N/A Fog Fog
11:53 PM 44.1°F 41.0°F 89% 30.35 in 0.2 miles Calm Calm - N/A Fog Fog
Moon Phase
Feb. 11 Feb. 17 Feb. 25 Mar. 04 Mar. 11
Sunrise:07:30 AM (PST) Moon Rise:07:46 AM (PST)2/11
Sunset:05:35 PM (PST) Moon Set:07:52 PM (PST)2/11

Copyright © 2014 The Weather Underground, Inc.